Preview of NWS' New Version of Forecast
This preview is not operational and should not be used for support decisions.

Regional Weather Roundup (RWR)

Issued by National Weather Service (NWS)

                            
000
ASUS45 KBOI 200410
RWRID 

IDAHO REGIONAL WEATHER ROUNDUP
NATIONAL WEATHER SERVICE BOISE ID
900 PM MST TUE FEB 19 2019

NOTE: "FAIR" INDICATES FEW OR NO CLOUDS BELOW 12000 FEET
WITH NO SIGNIFICANT WEATHER AND/OR OBSTRUCTIONS TO VISIBILITY

IDZ012-014-200500-
SOUTHWEST IDAHO

  
CITY           SKY/WX    TMP DP  RH WIND       PRES   REMARKS
BOISE          CLOUDY    29  24  82 SE5       29.90F WCI  24          
CALDWELL       FLURRIES  31  27  85 SE6       29.92F WCI  25          
MOUNTAIN HOME  CLOUDY    27  27 100 CALM      29.90F                  
$$

IDZ016-017-200500-
SOUTHCENTRAL IDAHO

  
CITY           SKY/WX    TMP DP  RH WIND       PRES   REMARKS
BURLEY         LGT SNOW  23  19  85 W16       29.85F FOG     WCI  10  
JEROME         LGT SNOW  24  22  91 SW9       29.86F VSB 1   WCI  14  
TWIN FALLS     LGT SNOW  24  18  77 SW18G26   29.86F WCI  10          
$$

IDZ019>023-200500-
SOUTHEAST IDAHO

  
CITY           SKY/WX    TMP DP  RH WIND       PRES   REMARKS
IDAHO FALLS    CLOUDY    16   9  74 S8        29.83F WCI   5          
POCATELLO      LGT SNOW  20  17  88 SW12      29.84F FOG     WCI   8  
REXBURG        LGT SNOW  14  10  84 CALM      29.81F FOG              
$$

IDZ006-010-011-018-031-032-200500-
CENTRAL IDAHO MOUNTAINS

  
CITY           SKY/WX    TMP DP  RH WIND       PRES   REMARKS
MCCALL         LGT SNOW  18  14  84 CALM      29.75F FOG              
HAILEY         CLOUDY    12   9  85 NW6       29.79F WCI   3          
STANLEY          N/A     13   7  77 S3        29.72F                  
SALMON         FLURRIES  20  16  84 CALM      29.79F                  
CHALLIS        CLOUDY    18  10  71 CALM      29.76F                  
$$

IDZ002-004-006-007-026-200500-
NORTHERN IDAHO

  
CITY           SKY/WX    TMP DP  RH WIND       PRES   REMARKS
LEWISTON       LGT SNOW  27  24  89 CALM      29.89F FOG              
LOWELL           N/A     28  26  92 CALM      29.92F                  
COEUR D'ALENE  LGT SNOW  20  18  92 CALM      29.84F FOG              
MULLAN PASS    LGT SNOW  12   8  84 NW3       29.63F FOG              
$$